CZ-4C R/B (49123 NORAD) Tracking and Keplerian Element Data

This shows tracking and keplerian element data for the satellite.

Feedback or suggestion? Click here.




ElementValue
Catalog49123
NameCZ-4C R/B
Epoch Orbit414
Epoch Day277.91493473
Epoch Year2021
RAAN350.8492
Inclination98.3176
Eccentricity0.013725
Argument of Perigee331.5715
Mean Anonmoly27.8062
Mean Motion14.93119524
Decay Rate1.51E-06
L11 49123U 21079B 21277.91493473 .00000151 00000-0 18420-4 0 9993
L22 49123 98.3176 350.8492 0137250 331.5715 27.8062 14.93119524 4142

Live tracking and technical data element details for CZ-4C R/B (NORAD 49123). CZ-4C R/B can be tracked NOW for your location showing map with azimuth and elevation plus other details from your city location.

Track the satellite on the map from your city or location and see movement details for azimuth, elevation, latitude, longitude, range, height, and movement on the map or in text.







IsCatalogInMostPopularTable: catalog: 49123, numindb: 7
Update: records affected: 1



GetName: 49123 CZ-4C R/B

Hit Count: updated at: Thu, 28 Oct 2021 10:44:23 GMT